FW9412 Weather Reports


Display with metric or nautical units.
time (UTC)temp
F
wind
direction
speed
MPH
gust
MPH
rain 1hr
in
rain 24hr
in
rain mn
in
humidity
%
barometer
mb
20260503025411 38 178 0.0 1.0 0.00 0.00 0.00 82 1013.6
20260503024908 38 177 0.0 1.0 0.00 0.00 0.00 82 1013.6
20260503024404 38 177 0.0 0.0 0.00 0.00 0.00 82 1013.6
20260503023901 38 177 0.0 0.0 0.00 0.00 0.00 81 1013.7
20260503023358 38 177 0.0 0.0 0.00 0.00 0.00 81 1013.6
20260503022855 38 177 0.0 0.0 0.00 0.00 0.00 81 1013.8
20260503022349 38 177 0.0 0.0 0.00 0.00 0.00 81 1013.9
20260503021846 38 177 0.0 0.0 0.00 0.00 0.00 82 1013.8
20260503021342 37 177 0.0 0.0 0.00 0.00 0.00 83 1014.1
20260503020840 37 177 0.0 0.0 0.00 0.00 0.00 83 1013.7
20260503020338 37 177 0.0 0.0 0.00 0.00 0.00 83 1014.2
20260503015834 38 177 0.0 0.0 0.00 0.00 0.00 82 1013.5
20260503015331 38 177 0.0 0.0 0.00 0.00 0.00 82 1014.1
20260503014827 38 177 0.0 0.0 0.00 0.00 0.00 82 1013.7
20260503014325 38 177 0.0 0.0 0.00 0.00 0.00 82 1013.9
20260503013822 38 177 0.0 0.0 0.00 0.00 0.00 81 1013.6
20260503013319 38 178 0.0 0.0 0.00 0.00 0.00 81 1013.7
20260503012816 38 178 0.0 0.0 0.00 0.00 0.00 81 1013.8
20260503012314 38 178 0.0 0.0 0.00 0.00 0.00 81 1013.7
20260503011810 38 178 1.0 1.0 0.00 0.00 0.00 81 1013.9
20260503011308 38 178 0.0 0.0 0.00 0.00 0.00 81 1013.8
20260503010804 38 180 1.0 1.0 0.00 0.00 0.00 81 1013.9
20260503010301 38 180 0.0 1.0 0.00 0.00 0.00 80 1013.8
20260503005758 39 184 1.0 1.0 0.00 0.00 0.00 80 1013.6
20260503005255 39 184 0.0 1.0 0.00 0.00 0.00 79 1013.5
20260503004751 39 185 0.0 0.0 0.00 0.00 0.00 78 1013.5
20260503004249 39 191 1.0 1.0 0.00 0.00 0.00 78 1013.6
20260503003746 39 191 0.0 1.0 0.00 0.00 0.00 77 1013.7
20260503003243 39 191 0.0 0.0 0.00 0.00 0.00 77 1013.4
20260503002740 39 191 0.0 0.0 0.00 0.00 0.00 77 1013.5
20260503002237 39 191 0.0 0.0 0.00 0.00 0.00 77 1013.3
20260503001733 39 191 0.0 0.0 0.00 0.00 0.00 77 1013.5
20260503001229 39 191 0.0 1.0 0.00 0.00 0.00 76 1013.4
20260503000728 39 191 0.0 1.0 0.00 0.00 0.00 77 1013.4
20260503000225 40 192 0.0 1.0 0.00 0.00 0.00 75 1013.6
20260502235721 40 193 1.0 1.0 0.00 0.00 0.00 75 1013.2
20260502235219 40 192 0.0 1.0 0.00 0.00 0.00 75 1013.3
20260502234715 40 193 0.0 1.0 0.00 0.00 0.00 75 1013.5
20260502234213 40 193 2.0 2.0 0.00 0.00 0.00 75 1013.2
20260502233708 40 194 1.0 2.0 0.00 0.00 0.00 73 1013.3
20260502233205 40 211 2.0 2.0 0.00 0.00 0.00 73 1013.0
20260502232701 40 197 1.0 1.0 0.00 0.00 0.00 73 1013.1
20260502232159 40 215 1.0 1.0 0.00 0.00 0.00 72 1013.0
20260502231655 41 215 3.0 3.0 0.00 0.00 0.00 73 1013.3
20260502231153 41 192 2.0 2.0 0.00 0.00 0.00 72 1012.9
20260502230651 41 194 1.0 1.0 0.00 0.00 0.00 73 1013.3
20260502230150 41 205 2.0 2.0 0.00 0.00 0.00 72 1013.1
20260502225644 41 200 1.0 1.0 0.00 0.00 0.00 73 1013.3
20260502225142 41 216 2.0 2.0 0.00 0.00 0.00 72 1013.2
20260502224638 41 216 3.0 3.0 0.00 0.00 0.00 73 1013.2
20260502224129 41 210 2.0 2.0 0.00 0.00 0.00 74 1013.0
20260502223627 41 195 1.0 1.0 0.00 0.00 0.00 74 1012.8
20260502223125 41 242 3.0 3.0 0.00 0.00 0.00 74 1013.0
20260502222623 41 225 2.0 2.0 0.00 0.00 0.00 74 1013.0
20260502222119 41 259 5.0 5.0 0.00 0.00 0.00 73 1013.0
20260502221614 41 170 1.0 1.0 0.00 0.00 0.00 73 1013.2
20260502221112 41 166 3.0 3.0 0.00 0.00 0.00 72 1013.1
20260502220608 42 253 2.0 3.0 0.00 0.00 0.00 70 1013.0
20260502220104 42 240 2.0 2.0 0.00 0.00 0.00 72 1013.1
20260502215602 42 197 2.0 2.0 0.00 0.00 0.00 72 1012.9
20260502215058 42 238 3.0 3.0 0.00 0.00 0.00 71 1013.1
20260502214555 42 258 3.0 3.0 0.00 0.00 0.00 71 1012.7
20260502214053 42 258 3.0 3.0 0.00 0.00 0.00 70 1013.1
20260502213549 42 205 1.0 2.0 0.00 0.00 0.00 71 1012.8
20260502213047 42 171 2.0 2.0 0.00 0.00 0.00 72 1013.1
20260502212546 42 187 2.0 2.0 0.00 0.00 0.00 71 1012.8
20260502212043 42 222 1.0 2.0 0.00 0.00 0.00 73 1012.7
20260502211539 42 193 2.0 3.0 0.00 0.00 0.00 71 1012.9
20260502211036 42 223 3.0 3.0 0.00 0.00 0.00 70 1012.9
20260502210533 42 229 2.0 2.0 0.00 0.00 0.00 69 1012.9
20260502210030 42 265 4.0 5.0 0.00 0.00 0.00 68 1013.0
20260502205527 43 178 2.0 2.0 0.00 0.00 0.00 67 1012.8
20260502205024 43 220 2.0 2.0 0.00 0.00 0.00 64 1012.8
20260502204521 44 253 3.0 3.0 0.00 0.00 0.00 62 1012.8
20260502204019 44 226 3.0 3.0 0.00 0.00 0.00 64 1012.8
20260502203515 43 260 1.0 1.0 0.00 0.00 0.00 64 1012.6
20260502203012 44 176 0.0 0.0 0.00 0.00 0.00 60 1012.7
20260502202508 44 144 0.0 1.0 0.00 0.00 0.00 64 1012.7
20260502202007 44 250 3.0 3.0 0.00 0.00 0.00 64 1012.4
20260502201503 43 173 2.0 2.0 0.00 0.00 0.00 63 1012.7
20260502200959 43 229 3.0 3.0 0.00 0.00 0.00 64 1012.9
20260502200455 43 227 3.0 3.0 0.00 0.00 0.00 64 1012.9
20260502195953 43 207 2.0 2.0 0.00 0.00 0.00 65 1012.8
20260502195450 43 199 3.0 3.0 0.00 0.00 0.00 66 1012.8
20260502194946 43 222 3.0 3.0 0.00 0.00 0.00 68 1012.8
20260502194443 43 181 3.0 3.0 0.00 0.00 0.00 68 1012.9
20260502193939 43 188 3.0 3.0 0.00 0.00 0.00 67 1013.2
20260502193437 43 203 2.0 2.0 0.00 0.00 0.00 66 1013.2
20260502192932 43 233 3.0 3.0 0.00 0.00 0.00 66 1013.2
20260502192429 43 206 1.0 1.0 0.00 0.00 0.00 66 1013.0
20260502191926 42 208 2.0 2.0 0.00 0.00 0.00 67 1013.2
20260502191424 43 260 4.0 5.0 0.00 0.00 0.00 66 1013.1
20260502190921 43 271 5.0 5.0 0.00 0.00 0.00 66 1013.1
20260502190418 43 186 1.0 1.0 0.00 0.00 0.00 66 1013.4
20260502185914 43 198 1.0 1.0 0.00 0.00 0.00 68 1013.2
20260502185410 43 234 1.0 1.0 0.00 0.00 0.00 67 1013.3
20260502184907 42 123 0.0 1.0 0.00 0.00 0.00 72 1013.5
20260502184403 42 193 1.0 1.0 0.00 0.00 0.00 68 1013.3
20260502183859 42 166 2.0 2.0 0.00 0.00 0.00 69 1013.3
20260502183355 43 215 2.0 2.0 0.00 0.00 0.00 68 1013.3
20260502182851 43 165 2.0 2.0 0.00 0.00 0.00 70 1013.2
20260502182347 42 166 0.0 0.0 0.00 0.00 0.00 68 1013.0
20260502181843 43 181 1.0 1.0 0.00 0.00 0.00 68 1013.2
20260502181342 43 112 0.0 1.0 0.00 0.00 0.00 67 1013.0
20260502180839 43 172 1.0 1.0 0.00 0.00 0.00 68 1013.2
20260502180336 44 80 3.0 5.0 0.00 0.00 0.00 67 1013.0
20260502170255 43 190 2.0 2.0 0.00 0.00 0.00 61 1013.0
20260502164243 43 243 4.0 5.0 0.00 0.00 0.00 60 1013.1
20260502163738 44 225 2.0 2.0 0.00 0.00 0.00 58 1012.9
20260502163235 44 247 3.0 3.0 0.00 0.00 0.00 58 1013.2
20260502162732 45 277 4.0 5.0 0.00 0.00 0.00 61 1013.2
20260502162228 44 200 2.0 2.0 0.00 0.00 0.00 61 1013.1
20260502161725 43 255 7.0 7.0 0.00 0.00 0.00 59 1013.0
20260502161222 44 247 4.0 6.0 0.00 0.00 0.00 58 1013.0
20260502160720 43 243 4.0 5.0 0.00 0.00 0.00 59 1012.9
20260502160219 43 211 3.0 3.0 0.00 0.00 0.00 61 1013.1
20260502152143 42 238 4.0 6.0 0.00 0.00 0.00 66 1013.4
20260502151641 42 227 3.0 3.0 0.00 0.00 0.00 67 1013.1
20260502151137 41 249 5.0 6.0 0.00 0.00 0.00 66 1013.5
20260502150635 41 243 4.0 5.0 0.00 0.00 0.00 72 1013.2
20260502150131 41 246 3.0 3.0 0.00 0.00 0.00 71 1013.3
20260502130520 37 260 5.0 6.0 0.00 0.00 0.00 86 1014.3
20260502123503 36 215 3.0 3.0 0.00 0.00 0.00 87 1013.8
20260502122959 36 248 5.0 6.0 0.00 0.00 0.00 88 1014.1
20260502122455 37 183 2.0 3.0 0.00 0.00 0.00 89 1014.1
20260502121954 37 220 4.0 5.0 0.00 0.00 0.00 88 1014.1
20260502121451 36 176 3.0 3.0 0.00 0.00 0.00 89 1014.1
20260502120948 36 224 4.0 5.0 0.00 0.00 0.00 90 1013.7
20260502120444 36 244 3.0 3.0 0.00 0.00 0.00 90 1013.9
20260502115439 36 245 3.0 3.0 0.00 0.00 0.00 91 1013.9
20260502114934 36 244 4.0 5.0 0.00 0.00 0.00 91 1013.7
20260502114432 36 249 3.0 5.0 0.00 0.00 0.00 91 1013.8
20260502113929 36 255 3.0 5.0 0.00 0.00 0.00 91 1013.9
20260502113426 36 250 5.0 6.0 0.00 0.00 0.00 92 1013.7
20260502112925 36 194 2.0 2.0 0.00 0.00 0.00 92 1013.9
20260502112422 37 246 5.0 6.0 0.00 0.00 0.00 93 1013.6
20260502111920 37 192 3.0 3.0 0.00 0.00 0.00 93 1013.6
20260502111416 37 233 2.0 2.0 0.00 0.00 0.00 93 1013.6
20260502110914 37 247 3.0 3.0 0.00 0.00 0.00 93 1013.7
20260502110412 37 185 2.0 2.0 0.00 0.00 0.00 93 1013.4
20260502105909 37 237 2.0 3.0 0.00 0.00 0.00 93 1013.2
20260502105406 37 198 3.0 3.0 0.00 0.00 0.00 93 1013.2
20260502104904 37 183 2.0 2.0 0.00 0.00 0.00 93 1013.2
20260502104401 37 213 3.0 3.0 0.00 0.00 0.00 93 1013.0
20260502103858 37 199 3.0 3.0 0.00 0.00 0.00 93 1013.1
20260502103355 37 219 3.0 3.0 0.00 0.00 0.00 94 1013.1
20260502102852 37 243 4.0 5.0 0.00 0.00 0.00 93 1013.1
20260502102349 37 192 1.0 1.0 0.00 0.00 0.00 93 1012.9
20260502101846 37 218 3.0 3.0 0.00 0.00 0.00 93 1013.2
20260502101344 37 243 3.0 3.0 0.00 0.00 0.00 94 1013.0
20260502100843 37 220 2.0 2.0 0.00 0.00 0.00 94 1012.8
20260502100342 37 217 2.0 2.0 0.00 0.00 0.00 94 1012.6
20260502091315 37 236 2.0 2.0 0.00 0.00 0.00 96 1012.6
20260502090813 38 212 2.0 2.0 0.00 0.00 0.00 96 1012.3
20260502090309 38 197 1.0 2.0 0.00 0.00 0.00 96 1012.3
20260502071205 38 183 1.0 1.0 0.00 0.00 0.00 96 1012.0
20260502070703 38 195 2.0 2.0 0.00 0.00 0.00 96 1011.8
20260502070200 38 185 1.0 2.0 0.00 0.00 0.00 96 1012.0
20260502065659 38 214 2.0 2.0 0.00 0.00 0.00 96 1012.1
20260502065155 37 187 1.0 2.0 0.00 0.00 0.00 96 1012.3
20260502064654 37 186 1.0 2.0 0.00 0.00 0.00 96 1012.2
20260502064151 37 180 1.0 1.0 0.00 0.00 0.00 96 1012.0
20260502063649 37 180 1.0 1.0 0.00 0.00 0.00 96 1012.1
20260502063147 37 164 0.0 0.0 0.00 0.00 0.00 96 1012.3
20260502062643 37 170 1.0 1.0 0.00 0.00 0.00 96 1012.0
20260502062141 37 162 1.0 1.0 0.00 0.00 0.00 96 1012.0
20260502061639 38 156 0.0 0.0 0.00 0.00 0.00 96 1011.8
20260502061136 38 155 0.0 0.0 0.00 0.00 0.00 96 1011.9
20260502060631 38 155 0.0 0.0 0.00 0.00 0.00 96 1011.9
20260502060128 38 155 0.0 0.0 0.00 0.00 0.00 96 1011.7
20260502055626 38 155 0.0 0.0 0.00 0.00 0.00 96 1011.9
20260502055123 38 156 0.0 0.0 0.00 0.00 0.00 96 1012.0
20260502054622 38 156 0.0 0.0 0.00 0.00 0.00 96 1012.1
20260502054119 38 157 0.0 0.0 0.00 0.00 0.00 96 1012.2
20260502053616 38 156 0.0 0.0 0.00 0.00 0.00 96 1012.3
20260502053113 38 156 0.0 0.0 0.00 0.00 0.00 96 1012.5
20260502052612 38 157 0.0 0.0 0.00 0.00 0.00 95 1012.6
20260502052110 38 158 0.0 0.0 0.00 0.00 0.00 96 1012.4
20260502051608 38 166 1.0 1.0 0.00 0.00 0.00 95 1012.5
20260502051105 38 157 0.0 0.0 0.00 0.00 0.00 95 1012.4
20260502050601 38 151 0.0 0.0 0.00 0.00 0.00 95 1012.3
20260502050058 38 150 0.0 0.0 0.00 0.00 0.00 95 1012.3
20260502045554 38 150 0.0 0.0 0.00 0.00 0.00 95 1012.3
20260502045052 38 149 0.0 0.0 0.00 0.00 0.00 95 1012.3
20260502044548 38 150 0.0 0.0 0.00 0.00 0.00 95 1012.4
20260502044045 38 147 0.0 0.0 0.00 0.00 0.00 95 1012.3
20260502043543 38 148 0.0 0.0 0.00 0.00 0.00 95 1012.4
20260502043039 38 148 0.0 0.0 0.00 0.00 0.00 95 1012.6
20260502042533 38 147 0.0 0.0 0.00 0.00 0.00 95 1012.5
20260502042031 38 147 0.0 0.0 0.00 0.00 0.00 95 1012.4
20260502041529 38 147 0.0 0.0 0.00 0.00 0.00 95 1012.7
20260502041026 38 147 0.0 0.0 0.00 0.00 0.00 95 1012.3
20260502040522 38 147 0.0 0.0 0.00 0.00 0.00 95 1012.4
20260502040020 38 148 0.0 0.0 0.00 0.20 0.20 95 1012.5
20260502035515 38 143 0.0 0.0 0.05 0.20 0.20 95 1012.2
20260502035013 38 142 0.0 0.0 0.05 0.20 0.20 95 1012.4
20260502034511 38 142 0.0 0.0 0.00 0.19 0.19 95 1012.4
20260502034009 38 142 0.0 0.0 0.00 0.19 0.19 95 1012.3
20260502033507 38 142 0.0 0.0 0.00 0.19 0.19 95 1012.5
20260502033004 38 142 0.0 0.0 0.00 0.19 0.19 95 1012.4
20260502032500 38 142 0.0 0.0 0.00 0.19 0.19 95 1012.4
20260502031956 38 142 0.0 0.0 0.00 0.19 0.19 95 1012.4
20260502031455 37 141 0.0 0.0 0.07 0.19 0.19 95 1012.2
20260502030953 37 118 1.0 1.0 0.07 0.19 0.19 95 1012.4
20260502030451 38 111 1.0 1.0 0.00 0.18 0.18 95 1012.4
20260502025948 38 139 0.0 0.0 0.00 0.18 0.18 95 1012.2